Location: Unspecified
(0.0000°N, 0.0000°E)
Time: 10:23:52
(UTC+00:00)

Envisat - Pass Details

Date: 15 February 2018
Orbit: 764 x 766 km, 98.2° (Epoch: 23 February)

Event Time Altitude Azimuth Distance (km) Brightness Sun altitude
Rises 20:42:07 0° 191° (SSW) 3,231 6.5 -36.0°
Reaches altitude 10° 20:44:49 10° 205° (SSW) 2,302 5.8 -36.6°
Maximum altitude 20:48:50 24° 258° (WSW) 1,544 5.1 -37.6°
Enters shadow 20:50:28 20° 285° (WNW) 1,690 5.2 -38.0°
Exits shadow 20:55:04 - 322° (NW) 3,043 6.3 -39.1°
Sets 20:55:33 0° 324° (NW) 3,217 6.4 -39.2°
